User: anonymous   Login
Location: NJAA Observatory
(40.6819°N, 74.8979°W)
Time: 06:29:48
(UTC-04:00)
Language:

Cosmos 220 Rocket - Orbit

View from above orbital plane
View from above orbital plane
View from above satellite
View from above satellite

Ground track
Ground track

The orbit data is extracted from the following two-line orbital elements,

1 03230U 68040B   16209.20848659  .00000206  00000-0  25336-4 0  9997
2 03230  74.0355 173.4607 0031541 214.1720 145.7433 14.89902359587112
Epoch (UTC): 27 July 2016 05:00:13
Eccentricity: 0.0031541
inclination: 74.0355°
perigee height: 576 km
apogee height: 620 km
right ascension of ascending node: 173.4607°
argument of perigee: 214.1720°
revolutions per day: 14.89902359
mean anomaly at epoch: 145.7433°
orbit number at epoch: 58711

The dashed part of the orbit path shows where the satellite is in the earth's shadow,  

DLR